Theta_e
315 314 314 314 315 315 316 315 314 313 313 313 313 312 312 311 309 308 309 308 307 307 307 307 307 309 307 308 309 307 306 306 303 305 306 309 310 311 312 311 312 315 315
315 315 314 314 316 316 314 311 312 311 312 312 312 310 310 307 306 305 305 305 305 304 305 305 305 307 307 307 308 306 305 305 303 301 304 303 306 310 310 309 308 310 311
315 314 315 317 315 313 311 312 312 313 312 311 311 309 306 305 305 304 303 302 303 303 303 303 303 306 305 304 304 302 302 302 302 300 299 303 305 305 305 307 307 309 309
316 316 316 316 314 314 313 313 311 310 308 308 309 306 306 305 304 303 302 301 302 301 301 301 302 304 305 304 304 302 301 300 300 299 300 301 301 303 303 302 303 306 307
316 316 315 314 314 313 311 309 309 308 308 308 307 305 305 304 303 302 300 300 299 299 299 300 302 306 307 305 303 302 302 300 299 299 298 298 297 298 299 302 302 303 306
317 315 314 314 314 310 309 306 304 304 304 305 305 305 303 303 301 302 299 299 298 297 297 298 300 305 305 304 304 304 303 301 299 299 298 297 297 298 301 300 300 300 298
315 314 314 312 310 307 304 303 302 302 302 302 303 304 302 302 299 299 299 298 297 297 298 298 299 301 303 303 302 302 302 301 301 301 299 299 297 299 300 301 302 301 301
313 313 311 309 305 303 302 302 301 301 301 301 301 302 301 301 299 298 298 298 297 298 299 299 299 300 301 299 299 299 299 299 300 300 301 301 301 302 301 303 302 302 303
312 310 307 305 303 302 301 300 300 300 299 301 300 300 299 299 298 298 297 297 296 297 298 299 300 298 297 297 297 297 297 298 300 300 300 299 298 298 300 302 299 298 297
308 306 305 304 302 301 301 300 300 297 297 300 299 299 299 298 296 296 297 297 296 296 298 298 298 297 296 295 296 295 295 296 296 297 298 299 300 301 300 302 300 298 298
306 305 303 302 301 301 301 299 295 296 298 297 295 296 297 297 296 296 296 297 296 296 296 297 298 296 294 294 294 296 295 296 295 296 296 297 299 300 299 300 301 300 300
304 303 301 301 302 301 296 294 295 294 294 294 294 294 295 296 295 294 295 295 296 296 296 297 297 294 292 293 294 294 293 294 295 294 294 294 295 296 297 298 301 303 303
302 301 300 300 300 297 294 293 293 294 293 292 292 293 293 294 295 294 294 294 294 295 296 296 295 292 292 293 294 294 294 294 292 292 292 293 294 295 297 298 301 302 304
300 300 299 298 297 297 295 295 294 293 293 293 292 292 292 293 294 294 295 294 293 294 294 296 295 293 293 293 294 294 293 293 291 290 291 293 294 295 295 296 296 297 299
300 299 298 298 297 296 297 296 296 296 295 294 293 292 293 293 294 294 294 295 295 294 294 296 295 294 294 294 294 294 293 292 291 290 290 290 292 293 293 295 296 296 297
298 298 297 297 296 297 297 297 294 294 293 292 291 293 294 293 292 292 291 291 291 291 295 295 294 293 293 293 293 292 293 291 291 290 290 289 289 291 292 294 295 296 294
299 297 297 297 297 297 297 297 297 296 293 292 291 291 291 292 291 291 291 290 290 291 296 294 293 294 293 294 293 292 291 291 290 290 289 289 289 289 290 291 292 293 293
300 297 297 297 297 297 297 297 297 296 297 298 294 292 291 291 291 291 290 290 295 294 294 294 294 294 294 294 294 293 292 292 291 290 289 289 289 288 289 289 291 291 293
299 298 298 297 297 297 297 296 296 296 296 296 296 295 293 290 290 290 290 295 295 295 294 294 294 295 295 295 295 294 293 293 291 290 289 288 288 288 288 289 290 287 288
299 297 296 297 297 296 295 295 295 295 295 296 297 296 295 292 294 294 295 294 294 295 295 294 295 295 296 296 296 295 294 293 293 291 289 288 288 288 288 289 290 290 291
299 297 292 297 296 296 296 296 295 295 295 295 297 296 288 294 294 293 294 294 295 295 296 295 295 295 296 296 296 296 295 294 293 292 290 289 288 287 288 289 290 290 291
298 297 297 297 296 295 295 296 295 295 295 295 297 296 285 293 293 293 293 294 295 296 296 297 296 296 297 297 297 296 295 294 294 293 291 289 288 288 288 289 290 290 291
299 299 298 297 297 293 295 296 295 295 295 296 296 295 295 295 295 294 294 295 295 296 297 296 296 297 297 297 298 297 296 296 295 294 291 290 289 288 288 288 289 289 290
299 299 299 298 298 298 298 297 296 291 295 295 296 296 295 296 296 296 295 296 296 297 297 297 297 297 298 298 298 298 297 297 296 294 292 290 289 288 287 287 289 289 289
299 298 297 297 297 297 297 296 296 297 296 296 296 296 297 296 296 297 297 297 297 297 298 298 297 298 298 298 299 298 295 287 293 289 291 289 288 288 286 287 287 288 288
299 298 297 297 297 297 297 297 297 297 296 296 297 297 297 297 297 298 298 298 298 298 298 299 298 298 298 299 298 294 288 287 289 286 290 289 287 289 288 287 287 287 287
Wind_Speed
8 7 8 7 6 7 6 6 5 4 5 7 4 4 5 5 6 5 5 6 6 6 7 7 8 7 6 5 4 4 4 3 3 5 6 8 8 10 11 10 10 10 9
7 8 7 8 8 8 7 7 5 5 4 5 4 5 5 5 5 6 6 6 7 7 7 7 8 7 8 7 5 6 6 5 5 9 7 8 8 10 10 11 10 9 10
7 9 9 9 9 9 9 6 6 5 5 4 4 6 5 5 5 5 5 6 6 6 6 7 7 7 7 6 6 6 6 6 5 6 7 5 5 8 10 9 9 11 9
10 9 9 8 9 9 8 6 7 4 6 5 4 5 5 5 5 6 6 7 6 6 6 7 7 7 5 6 6 6 6 7 7 6 6 7 6 7 6 9 10 9 11
11 9 9 9 9 9 8 7 6 4 3 5 5 5 5 5 5 5 6 6 6 7 8 8 8 10 9 8 5 7 7 6 6 6 6 5 6 8 8 7 7 9 10
11 11 11 11 9 8 9 5 7 4 3 4 4 5 5 4 7 9 7 5 5 6 7 8 8 9 11 12 13 13 6 5 6 3 4 6 8 6 6 6 5 8 9
13 13 13 11 10 9 7 6 6 4 3 4 4 4 4 3 7 8 8 5 6 7 7 7 7 7 9 9 13 14 12 8 8 6 8 7 6 4 7 9 10 10 10
14 15 14 13 11 8 7 6 5 3 4 4 4 4 3 3 7 7 7 6 5 5 6 6 6 9 9 11 10 10 10 8 6 4 6 10 9 10 8 8 9 9 9
15 14 13 13 12 9 7 6 4 4 3 2 3 4 4 4 6 6 5 5 5 6 6 7 8 8 12 11 6 8 9 7 7 7 9 11 10 9 6 5 7 8 8
15 15 13 12 10 9 7 6 3 3 3 5 5 4 6 4 5 5 5 3 5 5 6 7 9 9 11 11 6 6 7 7 9 11 10 11 9 8 7 3 4 5 6
13 13 12 10 10 9 7 4 5 4 6 5 5 4 3 3 3 5 5 3 3 4 4 6 5 12 11 9 7 6 5 9 8 6 6 7 7 7 7 6 4 3 5
15 13 11 9 8 7 9 5 5 6 5 4 3 3 1 1 3 4 5 4 4 3 4 4 4 10 9 10 8 11 10 7 6 7 7 8 7 8 9 8 8 4 3
14 12 9 8 8 8 8 7 4 4 4 3 3 2 1 0 1 4 5 6 6 4 3 6 7 6 8 7 10 11 9 7 7 7 7 7 6 7 9 6 6 7 6
13 11 9 9 8 6 5 5 5 4 4 3 3 2 2 1 1 1 2 4 4 3 3 2 3 4 4 4 5 6 6 6 6 6 7 7 7 8 7 7 5 7 4
11 9 8 7 8 7 5 6 5 4 4 4 4 4 3 2 3 5 2 3 4 4 4 2 3 3 5 5 6 5 5 6 7 7 6 7 7 7 8 7 5 4 5
10 8 7 7 5 6 5 3 2 4 7 8 7 6 4 5 7 4 3 6 5 2 1 2 2 3 4 4 5 5 4 7 6 6 6 6 7 7 8 7 5 5 6
11 9 7 7 6 5 3 4 3 1 2 7 9 9 9 5 6 5 4 4 3 3 1 1 2 3 4 4 4 4 4 5 5 5 5 6 7 6 6 6 7 6 6
10 12 8 7 6 4 4 4 3 3 2 3 4 8 9 8 8 7 4 1 2 1 2 2 3 3 3 4 4 3 4 5 5 6 5 6 6 6 6 6 5 6 6
9 7 8 6 6 5 4 3 3 3 4 3 2 1 1 7 7 3 6 3 3 3 3 4 4 4 4 4 4 4 4 4 4 5 5 5 5 5 5 5 6 6 5
8 12 8 6 5 4 4 3 3 4 3 3 3 2 2 2 2 3 3 3 4 5 4 5 5 5 5 5 5 4 4 3 4 4 4 4 4 3 4 5 5 6 6
7 7 9 6 5 5 4 4 4 4 4 3 4 4 5 4 4 4 4 4 6 6 6 6 6 6 6 6 5 5 5 5 4 4 4 4 5 6 5 4 4 5 5
8 7 6 6 4 4 4 4 4 4 4 4 4 3 6 4 5 5 6 6 7 7 6 6 6 7 7 7 7 7 7 6 5 4 3 3 3 5 5 6 6 6 6
8 7 6 5 5 5 4 4 5 5 5 5 5 4 4 6 6 7 7 7 7 7 6 7 7 7 7 8 8 8 9 8 7 5 5 4 3 2 3 6 7 7 7
7 6 6 6 5 5 5 5 5 6 6 6 5 6 6 6 6 8 8 7 7 7 7 7 8 11 9 9 9 9 9 9 7 7 8 5 5 3 2 5 7 9 8
7 6 6 6 6 6 5 4 5 6 7 6 6 6 6 6 7 8 7 7 7 7 9 8 8 11 14 16 15 16 12 10 10 9 6 5 5 5 3 5 7 9 9
7 6 6 5 5 5 4 4 4 4 6 6 6 6 7 7 7 7 7 8 8 8 9 7 9 14 15 13 16 15 8 9 11 12 9 7 5 5 5 5 9 7 9
Wind_Direction
154 143 146 144 115 100 109 109 107 98 101 98 87 72 59 35 28 41 32 30 26 11 9 2 348 340 348 345 345 345 341 334 300 309 321 328 332 337 338 336 342 336 336
153 140 133 109 112 119 117 115 109 99 101 108 93 72 68 68 52 44 34 24 24 16 4 2 355 350 358 357 348 349 346 336 320 319 320 324 322 330 329 328 329 333 324
135 124 123 128 129 126 123 130 114 117 92 78 76 80 78 66 51 38 32 24 24 25 13 1 349 349 354 352 354 354 347 337 332 321 318 319 321 325 328 324 326 321 324
138 137 136 136 131 131 125 120 115 120 113 112 88 97 90 73 54 36 32 27 28 17 1 355 345 341 350 347 341 339 341 332 332 327 321 318 318 322 325 329 334 331 323
141 139 137 131 126 122 116 110 96 105 116 110 110 91 83 76 52 46 40 35 22 4 354 356 351 333 356 356 348 338 340 335 328 324 322 318 315 329 333 324 313 325 322
145 139 137 137 132 123 119 139 121 129 125 114 107 108 93 81 60 51 59 40 16 2 350 344 344 348 339 333 337 336 316 299 302 289 300 302 297 306 310 303 319 334 330
144 143 144 138 133 135 137 129 127 139 127 97 86 102 95 81 62 50 49 33 17 6 357 347 342 340 339 337 324 317 311 321 273 269 281 286 296 299 314 315 326 322 310
150 148 144 143 138 137 136 133 130 123 120 110 94 99 98 76 59 44 43 23 12 3 353 346 333 334 337 335 322 322 328 330 329 305 272 287 278 287 293 293 301 303 304
149 149 145 144 140 142 135 136 138 127 112 109 117 112 90 59 30 37 48 15 15 359 354 354 357 348 340 349 351 342 339 345 340 310 289 282 287 278 272 307 337 327 330
150 146 143 138 137 138 143 132 107 101 118 125 104 79 88 74 17 53 48 28 15 5 353 353 353 356 345 354 5 350 344 343 336 335 341 344 352 342 337 326 305 313 324
134 133 132 140 142 141 125 109 127 118 117 118 113 100 89 76 30 36 39 28 17 351 351 352 345 342 345 355 3 8 341 319 335 340 345 356 356 352 351 344 321 285 310
132 132 141 140 131 126 126 132 136 128 117 127 120 111 110 21 13 359 359 16 353 339 341 326 315 329 1 359 3 357 359 353 3 2 4 2 352 347 341 337 332 329 293
136 138 138 129 131 140 136 138 134 135 129 135 128 134 146 38 337 351 347 345 336 318 294 298 306 329 16 359 355 4 7 8 3 3 354 346 336 321 321 342 351 358 15
136 137 136 140 142 148 143 148 143 154 148 142 152 181 192 201 262 310 335 334 325 327 324 323 346 337 20 357 356 6 10 8 1 351 343 335 337 349 354 356 345 353 9
137 140 141 146 149 162 169 170 176 191 169 171 192 185 180 193 210 188 231 331 338 327 317 6 6 2 352 351 348 352 356 3 2 353 356 352 350 351 356 347 10 2 31
139 147 158 154 160 167 172 166 226 226 205 216 194 178 220 225 175 207 244 284 306 296 42 10 338 338 337 333 336 338 349 353 354 349 354 356 352 353 353 0 8 19 20
149 156 160 160 165 158 167 171 185 212 209 229 225 217 217 201 205 234 264 301 316 163 47 287 296 308 312 314 321 332 337 344 334 348 348 351 349 349 358 1 1 5 8
151 159 165 169 161 167 173 177 176 190 230 259 235 225 225 207 233 249 253 164 203 185 222 258 273 282 292 298 306 311 323 339 350 348 348 346 349 346 350 358 359 353 347
153 164 175 164 166 173 166 178 178 212 228 244 270 235 272 193 221 257 183 214 220 233 231 243 249 255 262 270 278 284 297 324 336 339 343 344 344 342 343 345 342 334 329
159 160 158 165 163 162 177 186 204 206 210 220 229 208 170 129 193 209 217 223 231 240 234 242 247 247 250 256 266 273 284 300 323 333 335 332 332 326 327 331 338 337 336
157 157 158 157 168 177 189 203 191 187 206 211 238 208 192 192 213 220 231 232 239 244 239 237 242 245 248 252 257 263 267 274 278 301 319 333 334 327 318 301 312 322 320
156 159 159 165 165 175 197 201 196 203 211 227 244 213 178 218 227 233 237 245 243 241 244 242 246 240 241 243 245 251 257 257 260 260 275 295 314 319 321 310 313 317 318
154 157 160 158 170 175 190 197 202 208 218 233 243 236 216 231 232 237 242 248 250 248 244 234 245 252 243 244 241 239 249 249 241 229 245 261 272 296 314 305 309 312 316
155 154 160 176 184 197 207 209 210 213 221 234 243 241 239 236 235 238 241 245 249 253 249 242 236 241 251 247 244 240 237 237 228 219 215 228 248 255 294 298 305 306 305
157 157 161 169 177 190 192 200 212 219 224 231 242 237 240 240 245 243 243 240 246 251 258 250 243 247 254 257 254 250 241 209 209 190 198 220 257 280 263 280 294 302 303
163 172 180 178 192 195 198 206 227 225 229 235 241 247 245 242 244 248 250 243 245 247 253 255 254 254 258 262 261 260 234 205 201 189 185 182 181 250 255 277 298 296 302